Location: Lafig�re
(44.4503°N, 4.0357°E)
Time: 23:47:54
(UTC+00:00)

A-11 Canister half - Visible Passes

Search period start: 09 May 2021 00:00
Search period end: 19 May 2021 00:00
Orbit: 1514 x 1685 km, 47.2° (Epoch: 09 May)

Date Brightness Start Highest point End Pass type
(mag) Time Alt. Az. Time Alt. Az. Time Alt. Az.
09 May 9.1 21:10:51 10° WNW 21:20:03 63° SSW 21:25:09 30° SE visible
09 May 10.2 23:16:57 10° W 23:23:19 22° SW 23:23:19 22° SW visible
10 May 9.1 20:47:56 10° WNW 20:57:09 65° SSW 21:03:16 25° SE visible
10 May 10.1 22:53:52 10° W 23:00:49 23° SW 23:01:26 23° SW visible
11 May 9.1 20:25:02 10° WNW 20:34:16 68° SSW 20:41:25 20° SE visible
11 May 10.0 22:30:48 10° W 22:38:00 25° SW 22:39:36 24° SW visible
12 May 9.1 20:02:07 10° WNW 20:11:22 71° SSW 20:19:36 15° SE visible
12 May 10.0 22:07:46 10° W 22:15:10 27° SW 22:17:47 24° SSW visible
13 May 9.1 19:39:13 10° WNW 19:48:28 73° SSW 19:57:50 11° SE visible
13 May 10.0 21:44:45 10° WNW 21:52:20 29° SW 21:56:01 22° SSW visible
14 May 10.0 21:21:44 10° WNW 21:29:30 30° SW 21:34:17 20° S visible
15 May 10.0 20:58:44 10° WNW 21:06:40 32° SW 21:12:36 17° S visible
16 May 9.9 20:35:46 10° WNW 20:43:50 34° SW 20:50:57 14° SSE visible
17 May 9.9 20:12:47 10° WNW 20:20:59 36° SW 20:29:21 10° SSE visible
18 May 9.9 19:49:50 10° WNW 19:58:09 39° SW 20:06:40 10° SSE visible
